Location: Quaker Farms
(41.4276°N, 73.1557°W)
Time: 20:09:23
(UTC+00:00)

S-56A Canister/Altair - Pass Details

Date: 23 June 2021
Orbit: 631 x 2501 km, 38.9° (Epoch: 30 July)

Event Time Altitude Azimuth Distance (km) Brightness Sun altitude
Rises 10:47:56 0° 268° (W) 2,917 9.9 14.0°
Reaches altitude 10° 10:50:09 10° 265° (W) 2,010 9.1 14.4°
Maximum altitude 10:54:32 64° 184° (S) 753 7.6 15.2°
Drops below altitude 10° 10:59:50 10° 104° (ESE) 2,415 11.3 16.1°
Sets 11:02:44 0° 101° (E) 3,571 12.1 16.6°
